FW3585 Weather Reports


Display with metric or nautical units.
time (UTC)temp
F
wind
direction
speed
MPH
gust
MPH
rain 1hr
in
rain 24hr
in
rain mn
in
humidity
%
barometer
mb
20260904021512 86 235 0.0 0.0 0.00 0.00 0.00 60 1015.2
20260904020004 86 235 0.0 0.0 0.00 0.00 0.00 60 1015.2
20260904014503 86 235 0.0 0.0 0.00 0.00 0.00 60 1015.3
20260904013003 87 235 0.0 0.0 0.00 0.00 0.00 59 1015.2
20260904011503 87 235 0.0 0.0 0.00 0.00 0.00 58 1015.2
20260904010008 88 235 0.0 0.0 0.00 0.00 0.00 58 1015.1
20260904004501 89 235 0.0 0.0 0.00 0.00 0.00 56 1015.1
20260904003001 89 235 0.0 0.0 0.00 0.00 0.00 55 1015.0
20260904001601 90 234 0.0 0.0 0.00 0.00 0.00 56 1014.9
20260904000100 92 238 0.0 0.0 0.00 0.00 0.00 54 1014.5
20260903234559 93 238 0.0 2.0 0.00 0.00 0.00 53 1014.3
20260903233103 94 244 2.0 6.0 0.00 0.00 0.00 51 1014.0
20260903231559 95 207 0.0 3.0 0.00 0.00 0.00 50 1013.4
20260903230103 95 209 0.0 4.0 0.00 0.00 0.00 48 1013.4
20260903224558 96 215 5.0 9.0 0.00 0.00 0.00 47 1013.3
20260903223108 97 227 6.0 10.0 0.00 0.00 0.00 45 1013.3
20260903221556 97 231 5.0 11.0 0.00 0.00 0.00 43 1013.5
20260903220055 98 212 6.0 9.0 0.00 0.00 0.00 42 1013.6
20260903214553 97 242 0.0 4.0 0.00 0.00 0.00 43 1013.9
20260903213052 98 229 2.0 4.0 0.00 0.00 0.00 44 1014.0
20260903211605 97 336 1.0 3.0 0.00 0.00 0.00 46 1014.1
20260903210049 96 232 3.0 6.0 0.00 0.00 0.00 44 1014.2
20260903204552 98 217 2.0 10.0 0.00 0.00 0.00 46 1014.3
20260903203046 98 196 5.0 10.0 0.00 0.00 0.00 43 1014.3
20260903201547 98 267 3.0 7.0 0.00 0.00 0.00 43 1014.5
20260903200043 99 240 2.0 6.0 0.00 0.00 0.00 42 1014.6
20260903194540 98 248 5.0 9.0 0.00 0.00 0.00 43 1014.8
20260903193037 98 155 0.0 5.0 0.00 0.00 0.00 43 1015.2
20260903191535 98 222 1.0 5.0 0.00 0.00 0.00 43 1015.3
20260903190031 99 204 4.0 8.0 0.00 0.00 0.00 42 1015.5
20260903184528 97 313 1.0 6.0 0.00 0.00 0.00 45 1015.7
20260903183027 96 78 1.0 7.0 0.00 0.00 0.00 45 1015.8
20260903181524 96 170 1.0 5.0 0.00 0.00 0.00 47 1016.1
20260903180022 96 335 3.0 6.0 0.00 0.00 0.00 45 1016.2
20260903174520 95 232 2.0 9.0 0.00 0.00 0.00 49 1016.4
20260903173022 95 140 2.0 5.0 0.00 0.00 0.00 47 1016.4
20260903171514 93 339 1.0 7.0 0.00 0.00 0.00 49 1016.5
20260903170016 93 105 2.0 5.0 0.00 0.00 0.00 51 1016.7
20260903164508 93 298 0.0 4.0 0.00 0.00 0.00 52 1016.8
20260903163009 92 315 3.0 11.0 0.00 0.00 0.00 54 1017.0
20260903161502 93 5 1.0 5.0 0.00 0.00 0.00 57 1017.2
20260903160109 91 92 4.0 10.0 0.00 0.00 0.00 56 1017.4
20260903154556 91 47 4.0 8.0 0.00 0.00 0.00 58 1017.3
20260903153101 91 15 4.0 11.0 0.00 0.00 0.00 59 1017.5
20260903151549 90 118 0.0 6.0 0.00 0.00 0.00 60 1017.4
20260903150046 90 46 3.0 6.0 0.00 0.00 0.00 61 1017.4
20260903144541 89 173 1.0 3.0 0.00 0.00 0.00 63 1017.2
20260903143042 87 211 0.0 3.0 0.00 0.00 0.00 66 1017.2
20260903141532 87 286 0.0 2.0 0.00 0.00 0.00 70 1017.3
20260903140040 85 334 1.0 4.0 0.00 0.00 0.00 73 1017.4
20260903134525 83 344 1.0 4.0 0.00 0.00 0.00 76 1017.4
20260903133019 83 334 0.0 5.0 0.00 0.00 0.00 78 1017.3
20260903131515 81 327 3.0 7.0 0.00 0.00 0.00 79 1017.5
20260903130010 79 26 1.0 3.0 0.00 0.00 0.00 84 1017.5
20260903124505 78 348 1.0 3.0 0.00 0.00 0.00 84 1017.8
20260903123002 77 346 2.0 3.0 0.00 0.00 0.00 86 1017.8
20260903121556 74 341 2.0 5.0 0.00 0.00 0.00 90 1017.8
20260903120053 72 360 2.0 4.0 0.00 0.00 0.00 92 1017.8
20260903114548 71 355 2.0 5.0 0.00 0.00 0.00 95 1017.6
20260903113045 69 343 0.0 0.0 0.00 0.00 0.00 96 1017.3
20260903111540 69 343 0.0 0.0 0.00 0.00 0.00 96 1017.0
20260903110043 69 343 0.0 0.0 0.00 0.00 0.00 96 1016.9
20260903104536 69 343 0.0 0.0 0.00 0.00 0.00 96 1017.0
20260903103037 69 343 0.0 0.0 0.00 0.00 0.00 96 1016.9
20260903101534 69 336 0.0 0.0 0.00 0.00 0.00 95 1016.8
20260903100038 69 336 0.0 0.0 0.00 0.00 0.00 95 1016.7
20260903094542 70 336 0.0 0.0 0.00 0.00 0.00 95 1016.7
20260903093033 70 336 0.0 0.0 0.00 0.00 0.00 95 1016.6
20260903091534 70 336 0.0 0.0 0.00 0.00 0.00 94 1016.5
20260903090039 70 336 0.0 0.0 0.00 0.00 0.00 94 1016.4
20260903084531 70 336 0.0 0.0 0.00 0.00 0.00 94 1016.5
20260903083031 71 338 0.0 0.0 0.00 0.00 0.00 93 1016.5
20260903081526 71 333 0.0 0.0 0.00 0.00 0.00 93 1016.6
20260903080025 71 333 0.0 0.0 0.00 0.00 0.00 92 1016.8
20260903074523 72 333 0.0 0.0 0.00 0.00 0.00 92 1016.7
20260903073023 72 333 0.0 0.0 0.00 0.00 0.00 92 1016.7
20260903071521 72 347 0.0 0.0 0.00 0.00 0.00 91 1016.7
20260903070023 72 347 0.0 0.0 0.00 0.00 0.00 91 1016.6
20260903064519 73 335 0.0 0.0 0.00 0.00 0.00 90 1016.7
20260903063031 73 335 0.0 0.0 0.00 0.00 0.00 91 1016.5
20260903061520 72 331 2.0 4.0 0.00 0.00 0.00 91 1016.7
20260903060036 72 331 2.0 4.0 0.00 0.00 0.00 91 1016.8
20260903054514 73 346 1.0 3.0 0.00 0.00 0.00 90 1016.9
20260903053012 73 349 2.0 4.0 0.00 0.00 0.00 89 1016.8
20260903051510 74 315 0.0 2.0 0.00 0.00 0.00 87 1016.7
20260903050009 74 315 0.0 0.0 0.00 0.00 0.00 86 1016.5
20260903044506 74 315 0.0 1.0 0.00 0.00 0.00 86 1016.8
20260903043015 75 315 1.0 3.0 0.00 0.00 0.00 86 1016.8
20260903041504 75 325 2.0 4.0 0.00 0.00 0.00 85 1016.9
20260903040105 75 348 3.0 5.0 0.00 0.00 0.00 85 1017.1
20260903034558 76 5 3.0 6.0 0.00 0.00 0.00 84 1017.1
20260903033058 77 342 3.0 5.0 0.00 0.00 0.00 82 1017.1
20260903031556 77 335 0.0 4.0 0.00 0.00 0.00 81 1017.3
20260903030055 78 333 2.0 4.0 0.00 0.00 0.00 80 1017.2
20260903024556 80 325 1.0 4.0 0.00 0.00 0.00 77 1017.4
20260903023102 81 78 3.0 9.0 0.00 0.00 0.00 77 1017.5